Location: Miles
(41.4492°N, 81.6087°W)
Time: 03:41:41
(UTC+00:00)

Tiros 1 despin weight - Pass Details

Date: 19 September 2024
Orbit: 573 x 615 km, 48.2° (Epoch: 04 October)

Event Time Altitude Azimuth Distance (km) Brightness Sun altitude
Rises 05:45:32 0° 204° (SSW) 2,829 - -46.9°
Reaches altitude 10° 05:48:07 10° 190° (S) 1,939 - -46.8°
Maximum altitude 05:51:43 24° 136° (SE) 1,264 - -46.7°
Drops below altitude 10° 05:55:21 10° 83° (E) 1,968 - -46.5°
Sets 05:58:00 0° 70° (ENE) 2,882 - -46.4°
